FW3881 Weather Reports


time (UTC)temp
C
wind
direction
speed
KPH
gust
KPH
rain 1hr
cm
rain 24hr
cm
rain mn
cm
humidity
%
barometer
mb
20260505224435 22 200 3.2 6.4 0.00 0.00 0.00 43 1010.8
20260505223905 22 142 3.2 16.1 0.00 0.00 0.00 41 1010.9
20260505223624 22 246 1.6 16.1 0.00 0.00 0.00 42 1010.7
20260505222838 22 192 1.6 8.0 0.00 0.00 0.00 42 1010.9
20260505222309 22 246 1.6 8.0 0.00 0.00 0.00 43 1010.9
20260505221805 22 233 3.2 6.4 0.00 0.00 0.00 42 1010.8
20260505221526 22 245 3.2 14.5 0.00 0.00 0.00 41 1010.7
20260505220755 22 183 3.2 14.5 0.00 0.00 0.00 42 1010.9
20260505220248 22 222 3.2 9.7 0.00 0.00 0.00 40 1010.9
20260505215751 22 191 1.6 9.7 0.00 0.00 0.00 43 1010.9
20260505215220 22 187 1.6 9.7 0.00 0.00 0.00 41 1010.9
20260505214716 22 247 3.2 14.5 0.00 0.00 0.00 43 1010.8
20260505214408 22 158 3.2 14.5 0.00 0.00 0.00 41 1010.9
20260505213619 22 179 3.2 11.3 0.00 0.00 0.00 42 1010.8
20260505213050 22 181 4.8 20.9 0.00 0.00 0.00 42 1010.7
20260505212555 23 204 4.8 20.9 0.00 0.00 0.00 42 1010.7
20260505212024 23 185 4.8 11.3 0.00 0.00 0.00 42 1010.7
20260505211457 23 202 4.8 9.7 0.00 0.00 0.00 41 1010.7
20260505211200 23 235 3.2 12.9 0.00 0.00 0.00 43 1010.5
20260505210440 23 244 4.8 12.9 0.00 0.00 0.00 44 1010.5
20260505205942 23 174 4.8 12.9 0.00 0.00 0.00 44 1010.5
20260505205438 24 177 4.8 11.3 0.00 0.00 0.00 42 1010.7
20260505205207 24 108 4.8 14.5 0.00 0.00 0.00 42 1010.4
20260505204432 24 231 4.8 14.5 0.00 0.00 0.00 43 1010.3
20260505203905 24 214 3.2 8.0 0.00 0.00 0.00 41 1010.5
20260505203403 25 179 3.2 6.4 0.00 0.00 0.00 42 1010.4
20260505202838 25 169 3.2 14.5 0.00 0.00 0.00 41 1010.3
20260505202332 25 196 3.2 14.5 0.00 0.00 0.00 42 1010.4
20260505202055 24 208 4.8 14.5 0.00 0.00 0.00 42 1010.5
20260505201304 24 164 4.8 14.5 0.00 0.00 0.00 41 1010.4
20260505200740 25 217 4.8 14.5 0.00 0.00 0.00 43 1010.5
20260505200212 25 208 3.2 14.5 0.00 0.00 0.00 43 1010.7
20260505195706 25 198 3.2 11.3 0.00 0.00 0.00 44 1010.5
20260505195204 25 230 3.2 8.0 0.00 0.00 0.00 45 1010.8
20260505194703 25 228 3.2 11.3 0.00 0.00 0.00 43 1010.9
20260505194140 25 202 3.2 11.3 0.00 0.00 0.00 44 1010.8
20260505193640 25 168 3.2 17.7 0.00 0.00 0.00 41 1010.9
20260505193141 25 219 3.2 17.7 0.00 0.00 0.00 44 1011.0
20260505192639 25 258 4.8 12.9 0.00 0.00 0.00 44 1011.0
20260505192137 25 220 4.8 14.5 0.00 0.00 0.00 44 1011.0
20260505191609 25 189 3.2 14.5 0.00 0.00 0.00 41 1011.2
20260505191105 25 159 4.8 14.5 0.00 0.00 0.00 41 1011.2
20260505190823 25 166 4.8 12.9 0.00 0.00 0.00 42 1011.1
20260505190329 25 203 4.8 14.5 0.00 0.00 0.00 42 1011.2
20260505185755 24 293 4.8 14.5 0.00 0.00 0.00 41 1011.4
20260505185031 24 164 4.8 14.5 0.00 0.00 0.00 43 1011.3
20260505184502 25 231 4.8 14.5 0.00 0.00 0.00 41 1011.5
20260505184002 25 144 3.2 14.5 0.00 0.00 0.00 41 1011.4
20260505183436 25 121 3.2 11.3 0.00 0.00 0.00 41 1011.5
20260505182915 25 192 3.2 9.7 0.00 0.00 0.00 43 1011.6
20260505182344 25 196 3.2 12.9 0.00 0.00 0.00 43 1011.6
20260505181814 25 223 3.2 12.9 0.00 0.00 0.00 42 1011.6
20260505181313 25 198 3.2 8.0 0.00 0.00 0.00 42 1011.7
20260505180755 25 167 3.2 8.0 0.00 0.00 0.00 41 1011.8
20260505180252 25 193 3.2 12.9 0.00 0.00 0.00 45 1011.8
20260505175755 25 209 3.2 14.5 0.00 0.00 0.00 44 1011.8
20260505175238 25 245 3.2 14.5 0.00 0.00 0.00 47 1011.8
20260505174737 25 206 4.8 17.7 0.00 0.00 0.00 42 1011.7
20260505174207 25 244 3.2 17.7 0.00 0.00 0.00 43 1012.0
20260505173705 24 190 4.8 16.1 0.00 0.00 0.00 44 1012.1
20260505173200 24 219 4.8 16.1 0.00 0.00 0.00 45 1012.1
20260505172635 24 242 3.2 12.9 0.00 0.00 0.00 45 1012.0
20260505172135 24 221 4.8 12.9 0.00 0.00 0.00 44 1012.0
20260505171607 24 235 4.8 12.9 0.00 0.00 0.00 44 1012.1
20260505171058 24 230 4.8 12.9 0.00 0.00 0.00 44 1012.2
20260505170558 24 260 4.8 14.5 0.00 0.00 0.00 46 1012.2
20260505170542 23 248 4.8 14.5 0.00 0.00 0.00 43 1012.2
20260505165555 23 203 4.8 11.3 0.00 0.00 0.00 43 1012.3
20260505165317 23 179 3.2 11.3 0.00 0.00 0.00 44 1012.5
20260505164534 24 223 3.2 19.3 0.00 0.00 0.00 43 1012.4
20260505164007 24 208 4.8 19.3 0.00 0.00 0.00 46 1012.7
20260505163441 24 5 4.8 17.7 0.00 0.00 0.00 44 1012.7
20260505162941 23 269 4.8 14.5 0.00 0.00 0.00 45 1012.9
20260505162443 23 162 4.8 14.5 0.00 0.00 0.00 43 1012.9
20260505161941 23 219 4.8 14.5 0.00 0.00 0.00 45 1012.9
20260505161412 23 225 3.2 9.7 0.00 0.00 0.00 45 1012.9
20260505160847 23 149 3.2 6.4 0.00 0.00 0.00 46 1013.1
20260505160322 23 225 3.2 11.3 0.00 0.00 0.00 46 1013.0
20260505153235 23 147 4.8 12.9 0.00 0.00 0.00 46 1013.2
20260505152733 23 190 3.2 11.3 0.00 0.00 0.00 47 1013.2
20260505152233 22 137 3.2 11.3 0.00 0.00 0.00 46 1013.2
20260505151732 22 218 1.6 8.0 0.00 0.00 0.00 50 1013.2
20260505151434 22 246 3.2 12.9 0.00 0.00 0.00 52 1013.2
20260505150648 22 173 3.2 12.9 0.00 0.00 0.00 53 1013.2
20260505150118 22 102 3.2 9.7 0.00 0.00 0.00 54 1013.2
20260505140206 20 198 3.2 8.0 0.00 0.00 0.00 58 1013.1
20260505130214 17 223 1.6 12.9 0.00 0.00 0.00 62 1013.3
20260505124626 17 229 1.6 8.0 0.00 0.00 0.00 64 1013.4
20260505124127 16 84 0.0 4.8 0.00 0.00 0.00 68 1013.3
20260505123557 16 323 0.0 4.8 0.00 0.00 0.00 69 1013.4
20260505123055 16 51 0.0 3.2 0.00 0.00 0.00 68 1013.5
20260505122819 16 98 0.0 3.2 0.00 0.00 0.00 69 1013.4
20260505122054 15 92 0.0 4.8 0.00 0.00 0.00 70 1013.4
20260505121554 15 269 0.0 4.8 0.00 0.00 0.00 70 1013.5
20260505121043 15 272 1.6 6.4 0.00 0.00 0.00 71 1013.4
20260505120514 15 305 1.6 6.4 0.00 0.00 0.00 73 1013.4
20260505120012 15 72 1.6 4.8 0.00 0.00 0.00 72 1013.4
20260505115708 14 259 1.6 4.8 0.00 0.00 0.00 72 1013.4
20260505114944 14 212 1.6 8.0 0.00 0.00 0.00 73 1013.3
20260505114441 13 208 1.6 8.0 0.00 0.00 0.00 74 1013.2
20260505113938 13 245 0.0 6.4 0.00 0.00 0.00 74 1013.1
20260505113409 13 171 0.0 3.2 0.00 0.00 0.00 76 1013.1
20260505113132 13 158 0.0 3.2 0.00 0.00 0.00 77 1013.0
20260505112342 13 158 0.0 3.2 0.00 0.00 0.00 77 1013.0
20260505111813 12 158 0.0 3.2 0.00 0.00 0.00 78 1012.9
20260505111310 12 300 0.0 3.2 0.00 0.00 0.00 78 1012.8
20260505110746 12 61 0.0 6.4 0.00 0.00 0.00 79 1012.7
20260505110220 12 10 0.0 6.4 0.00 0.00 0.00 78 1012.7
20260505101943 11 248 0.0 0.0 0.00 0.00 0.00 80 1012.2
20260505101431 11 248 0.0 0.0 0.00 0.00 0.00 80 1012.2
20260505101123 11 248 0.0 0.0 0.00 0.00 0.00 80 1012.1
20260505100400 11 248 0.0 0.0 0.00 0.00 0.00 80 1012.0
20260505095831 11 249 0.0 0.0 0.00 0.00 0.00 80 1012.1
20260505095328 11 249 0.0 0.0 0.00 0.00 0.00 80 1012.2
20260505094804 12 249 0.0 0.0 0.00 0.00 0.00 79 1012.2
20260505094459 12 249 0.0 0.0 0.00 0.00 0.00 79 1012.1
20260505093730 12 249 0.0 0.0 0.00 0.00 0.00 78 1012.1
20260505093228 12 249 0.0 6.4 0.00 0.00 0.00 78 1012.1
20260505092947 12 248 0.0 6.4 0.00 0.00 0.00 77 1012.1
20260505092442 12 250 0.0 3.2 0.00 0.00 0.00 77 1012.1
20260505091655 12 250 1.6 8.0 0.00 0.00 0.00 76 1012.1
20260505091417 13 250 1.6 8.0 0.00 0.00 0.00 76 1012.1
20260505090906 12 184 1.6 4.8 0.00 0.00 0.00 76 1012.0
20260505090117 12 264 1.6 4.8 0.00 0.00 0.00 77 1012.0
20260505085615 12 246 0.0 4.8 0.00 0.00 0.00 77 1012.0
20260505085054 12 32 0.0 3.2 0.00 0.00 0.00 78 1012.0
20260505084547 12 183 0.0 3.2 0.00 0.00 0.00 78 1012.0
20260505084017 12 111 0.0 3.2 0.00 0.00 0.00 78 1011.9
20260505083736 12 108 0.0 3.2 0.00 0.00 0.00 77 1011.8
20260505083014 12 100 0.0 3.2 0.00 0.00 0.00 78 1011.9
20260505082742 12 126 0.0 3.2 0.00 0.00 0.00 77 1011.8
20260505081950 12 199 0.0 3.2 0.00 0.00 0.00 77 1011.8
20260505081446 12 252 0.0 3.2 0.00 0.00 0.00 77 1011.9
20260505080949 13 264 0.0 6.4 0.00 0.00 0.00 77 1011.8
20260505080446 13 264 0.0 6.4 0.00 0.00 0.00 77 1011.9
20260505075950 13 247 1.6 9.7 0.00 0.00 0.00 76 1011.9
20260505075417 13 247 1.6 9.7 0.00 0.00 0.00 76 1011.9
20260505074911 13 198 0.0 3.2 0.00 0.00 0.00 77 1011.8
20260505074346 12 229 0.0 1.6 0.00 0.00 0.00 77 1011.8
20260505073817 12 229 0.0 12.9 0.00 0.00 0.00 77 1011.8
20260505073254 12 230 0.0 12.9 0.00 0.00 0.00 77 1011.7
20260505072726 12 109 0.0 1.6 0.00 0.00 0.00 78 1011.7
20260505072200 12 99 0.0 1.6 0.00 0.00 0.00 77 1011.6
20260505071634 12 204 0.0 0.0 0.00 0.00 0.00 77 1011.7
20260505071338 12 204 0.0 0.0 0.00 0.00 0.00 77 1011.6
20260505070539 13 204 0.0 0.0 0.00 0.00 0.00 77 1011.6
20260505070039 13 171 0.0 0.0 0.00 0.00 0.00 76 1011.6
20260505065512 13 172 0.0 3.2 0.00 0.00 0.00 76 1011.6
20260505064944 13 5 0.0 3.2 0.00 0.00 0.00 75 1011.7
20260505064415 13 220 0.0 0.0 0.00 0.00 0.00 75 1011.7
20260505063914 13 220 0.0 0.0 0.00 0.00 0.00 74 1011.7
20260505063345 13 220 0.0 0.0 0.00 0.00 0.00 74 1011.8
20260505062845 13 217 0.0 0.0 0.00 0.00 0.00 74 1011.8
20260505062335 13 217 0.0 0.0 0.00 0.00 0.00 74 1011.8
20260505061839 13 217 0.0 0.0 0.00 0.00 0.00 74 1011.8
20260505061322 13 217 0.0 0.0 0.00 0.00 0.00 73 1011.9
20260505060829 13 217 0.0 0.0 0.00 0.00 0.00 74 1011.9
20260505060257 13 217 0.0 0.0 0.00 0.00 0.00 74 1012.0
20260505060018 13 217 0.0 0.0 0.00 0.00 0.00 75 1012.0
20260505055227 13 217 0.0 0.0 0.00 0.00 0.00 75 1011.9
20260505054655 13 217 0.0 0.0 0.00 0.00 0.00 75 1011.9
20260505054132 13 217 0.0 0.0 0.00 0.00 0.00 75 1011.9
20260505053826 13 217 0.0 0.0 0.00 0.00 0.00 76 1012.0
20260505053103 12 217 0.0 3.2 0.00 0.00 0.00 76 1012.0
20260505052536 13 217 0.0 3.2 0.00 0.00 0.00 76 1011.9
20260505052007 13 318 0.0 0.0 0.00 0.00 0.00 77 1011.9
20260505051504 13 318 0.0 0.0 0.00 0.00 0.00 76 1012.0
20260505050937 13 307 0.0 0.0 0.00 0.00 0.00 75 1012.1
20260505050415 13 307 0.0 0.0 0.00 0.00 0.00 74 1011.9
20260505041147 14 183 0.0 0.0 0.00 0.00 0.00 72 1011.9
20260505040650 14 183 0.0 0.0 0.00 0.00 0.00 72 1011.8
20260505040119 14 183 0.0 1.6 0.00 0.00 0.00 72 1011.8
20260505035840 14 183 0.0 4.8 0.00 0.00 0.00 72 1011.8
20260505035118 14 178 0.0 4.8 0.00 0.00 0.00 72 1011.8
20260505034814 14 183 0.0 3.2 0.00 0.00 0.00 71 1011.8
20260505034053 14 173 0.0 3.2 0.00 0.00 0.00 71 1011.7
20260505033553 14 163 0.0 3.2 0.00 0.00 0.00 71 1011.7
20260505033051 14 300 0.0 8.0 0.00 0.00 0.00 70 1011.7
20260505032553 15 179 0.0 8.0 0.00 0.00 0.00 70 1011.8
20260505032028 15 148 0.0 9.7 0.00 0.00 0.00 69 1011.8
20260505031505 15 211 0.0 9.7 0.00 0.00 0.00 69 1011.9
20260505031000 15 67 0.0 9.7 0.00 0.00 0.00 69 1011.9
20260505030500 15 194 0.0 9.7 0.00 0.00 0.00 68 1011.9
20260505030217 15 108 0.0 3.2 0.00 0.00 0.00 69 1011.9
20260505025430 15 68 1.6 8.0 0.00 0.00 0.00 68 1012.0
20260505024928 15 234 0.0 8.0 0.00 0.00 0.00 68 1012.0
20260505024423 15 312 0.0 3.2 0.00 0.00 0.00 68 1012.0
20260505023919 15 229 0.0 3.2 0.00 0.00 0.00 68 1011.9
20260505023420 15 196 0.0 3.2 0.00 0.00 0.00 69 1012.0
20260505022912 15 258 0.0 3.2 0.00 0.00 0.00 68 1012.0
20260505022409 15 258 0.0 4.8 0.00 0.00 0.00 67 1011.9
20260505021842 15 258 0.0 4.8 0.00 0.00 0.00 67 1011.8
20260505021336 15 204 0.0 6.4 0.00 0.00 0.00 67 1011.9
20260505021039 15 205 1.6 6.4 0.00 0.00 0.00 66 1011.8
20260505020259 15 208 1.6 4.8 0.00 0.00 0.00 65 1011.8
20260505015800 16 203 1.6 4.8 0.00 0.00 0.00 64 1011.8
20260505015257 16 182 1.6 8.0 0.00 0.00 0.00 64 1011.8
20260505014739 16 163 1.6 8.0 0.00 0.00 0.00 64 1011.7
20260505014237 16 213 1.6 8.0 0.00 0.00 0.00 64 1011.6
20260505013739 16 204 1.6 8.0 0.00 0.00 0.00 63 1011.5
20260505013211 16 207 1.6 4.8 0.00 0.00 0.00 62 1011.5
20260505012711 16 206 0.0 4.8 0.00 0.00 0.00 62 1011.6
20260505012142 16 73 0.0 3.2 0.00 0.00 0.00 62 1011.6
20260505011637 16 5 0.0 3.2 0.00 0.00 0.00 63 1011.6
20260505011117 16 5 0.0 3.2 0.00 0.00 0.00 62 1011.4
20260505010825 16 198 1.6 9.7 0.00 0.00 0.00 61 1011.4
20260505010036 17 228 1.6 8.0 0.00 0.00 0.00 62 1011.2
20260505005536 17 203 1.6 4.8 0.00 0.00 0.00 60 1011.2
20260505005010 17 199 3.2 11.3 0.00 0.00 0.00 57 1011.0
20260505004510 17 237 3.2 11.3 0.00 0.00 0.00 57 1011.1
20260505004013 17 227 1.6 8.0 0.00 0.00 0.00 56 1010.9
20260505003448 17 161 1.6 12.9 0.00 0.00 0.00 56 1011.1
20260505002948 17 177 1.6 12.9 0.00 0.00 0.00 55 1011.1
20260505002447 17 193 1.6 6.4 0.00 0.00 0.00 54 1011.0
20260505001948 17 194 3.2 11.3 0.00 0.00 0.00 54 1011.0
20260505001441 17 223 3.2 11.3 0.00 0.00 0.00 54 1011.1
20260505000939 17 224 1.6 6.4 0.00 0.00 0.00 53 1011.0
20260505000410 17 163 0.0 6.4 0.00 0.00 0.00 54 1011.0
20260504235910 17 227 1.6 6.4 0.00 0.00 0.00 54 1011.0
20260504235341 18 277 1.6 9.7 0.00 0.00 0.00 53 1011.0
20260504235101 18 152 1.6 11.3 0.00 0.00 0.00 53 1010.9
20260504234558 18 181 1.6 11.3 0.00 0.00 0.00 54 1010.9
20260504234035 18 225 0.0 9.7 0.00 0.00 0.00 52 1010.9
20260504233306 18 248 0.0 6.4 0.00 0.00 0.00 52 1010.8
20260504232738 18 214 1.6 6.4 0.00 0.00 0.00 52 1010.8
20260504232238 18 200 1.6 12.9 0.00 0.00 0.00 52 1010.8
20260504231732 18 122 1.6 12.9 0.00 0.00 0.00 52 1010.7
20260504231231 18 117 3.2 12.9 0.00 0.00 0.00 51 1010.7
20260504230702 18 223 1.6 12.9 0.00 0.00 0.00 51 1010.8
20260504230201 18 146 1.6 4.8 0.00 0.00 0.00 51 1010.8
20260504225633 18 321 1.6 4.8 0.00 0.00 0.00 50 1010.8
20260504225132 19 177 1.6 11.3 0.00 0.00 0.00 48 1010.9
20260504225044 19 192 0.0 11.3 0.00 0.00 0.00 47 1010.8